Weather in Kochki

Russia / Altai Krai     52°23′16″N   80°39′20″E
temp.,
°C
wind,
m/s
gust,
m/s
humid.,
%
clouds,
%
prec.,
mm/h
press.,
hPa
HPBL,
m
29 july, thu
thu2901:00+13sw11503 0.0 101011
04:00+13s33520 0.0 101017
07:00+13ssw335679 0.0 101043
10:00+21ssw343599 0.0 1009659
13:00+24wsw332954 0.0 10082042
16:00+26wsw3326100 0.0 10072748
19:00+25nw3432100 0.0 1006669
22:00+17ne3467100 0.4 100869
30 july, fri
fri3001:00+16n357898 0.9 100889
04:00+14n349298 0.0 100973
07:00+13n3682100 0.0 1011146
10:00+19nnw454690 0.0 1012594
13:00+23nw45271 0.0 10121822
16:00+25nw55242 0.0 10122486
19:00+23wnw65264 0.0 10132083
22:00+17nw454149 0.0 101561
31 july, sat
sat3101:00+14n22475 0.0 101612
04:00+13e225219 0.0 101610
07:00+13sse345425 0.0 101654
10:00+22s34356 0.0 1015572
13:00+25wsw33268 0.0 10141974
16:00+27wsw342227 0.0 10132354
19:00+26wsw2425100 0.0 10122249
22:00+20ssw113485 0.0 101311
1 august, sun
sun101:00+18sse33379 0.0 101217
04:00+17s334221 0.0 101134
07:00+17ssw334399 0.0 101138
10:00+24ssw342919 0.0 1011345
13:00+29sw332393 0.0 10091747
16:00+32wsw342216 0.0 10073280
19:00+31sw1225100 0.0 10061487
22:00+24wnw114150 0.0 100712
2 august, mon
mon201:00+20w22515 0.0 100612
04:00+17wsw46735 0.0 100689
07:00+17w59775 0.0 1006189
10:00+24wnw57471 0.0 1006600
13:00+29wnw67325 0.0 10051821
16:00+30wnw573246 0.0 10042607
19:00+24w125310 0.6 100259
22:00+18nne128550 1.6 100444